Oceana NAS, VA

1:29 PM EDT on April 26, 2018 (GMT -0400)
Oceana Naval Air Station

Weather History for KNTU - October, 2012

Change the Weather History Date:

Tuesday, October 23, 2012

  Actual Average Record
Temperature  
Mean Temperature 62 °F -  
Max Temperature 75 °F 65 °F 87 °F (2007)
Min Temperature 48 °F 47 °F 33 °F (2001)
Degree Days  
Heating Degree Days 4    
Growing Degree Days 12 (Base 50)    
Moisture  
Dew Point 49 °F    
Average Humidity 68    
Maximum Humidity 93    
Minimum Humidity 33    
Precipitation  
Precipitation 0.00 in - - ()
Sea Level Pressure  
Sea Level Pressure 30.15 in    
Wind  
Wind Speed 6 mph (SSW)    
Max Wind Speed 13 mph    
Max Gust Speed -    
Visibility 10 miles    
Events Fog    
Averages and records for this station are not official NWS values.
T = Trace of Precipitation, MM = Missing Value Source: NWS Daily Summary

Daily Weather History Graph

Daily Weather History Graph

Search for Another Location

Airport or City:

Astronomy

Oct. 23, 2012 Rise Set
Actual Time 7:19 AM EDT 6:16 PM EDT
Civil Twilight 6:53 AM EDT 6:43 PM EDT
Nautical Twilight 6:22 AM EDT 7:13 PM EDT
Astronomical Twilight 5:52 AM EDT 7:43 PM EDT
Moon 2:51 PM EDT (10/23) 1:17 AM EDT (10/23)
Length of Visible Light 11h 49m
Length of Day
10h 57m
Waxing Gibbous, 66% of the Moon is Illuminated
Oct 23
Waxing Gibbous
Oct 29
Full
Nov 6
Last Quarter
Nov 13
New
Nov 20
First Quarter

Hourly Weather History & Observations

Time (EDT) Temp. Dew Point Humidity Pressure Visibility Wind Dir Wind Speed Gust Speed Precip Events Conditions
12:56 AM 52.0 °F 46.0 °F 80% 30.16 in 10.0 mi SSW 4.6 mph - N/A   Clear
1:56 AM 50.0 °F 46.0 °F 86% 30.16 in 10.0 mi WSW 5.8 mph - N/A   Clear
2:56 AM 50.0 °F 46.0 °F 86% 30.15 in 10.0 mi SW 6.9 mph - N/A   Clear
3:56 AM 50.0 °F 46.9 °F 89% 30.15 in 10.0 mi SW 4.6 mph - N/A   Clear
4:56 AM 50.0 °F 48.0 °F 93% 30.15 in 9.0 mi SW 3.5 mph - N/A   Clear
5:56 AM 48.9 °F 46.9 °F 93% 30.15 in 10.0 mi SW 4.6 mph - N/A   Clear
6:56 AM 48.0 °F 45.0 °F 89% 30.17 in 10.0 mi SSW 3.5 mph - N/A Fog Patches of Fog
7:56 AM 48.9 °F 45.0 °F 86% 30.17 in 10.0 mi SW 4.6 mph - N/A   Scattered Clouds
8:56 AM 55.9 °F 46.9 °F 72% 30.18 in 10.0 mi SW 5.8 mph - N/A   Scattered Clouds
9:56 AM 63.0 °F 50.0 °F 63% 30.19 in 10.0 mi WSW 5.8 mph - N/A   Mostly Cloudy
10:56 AM 68.0 °F 48.0 °F 49% 30.19 in 10.0 mi WSW 6.9 mph - N/A   Scattered Clouds
11:56 AM 71.1 °F 48.0 °F 44% 30.18 in 10.0 mi SW 6.9 mph - N/A   Scattered Clouds
12:56 PM 73.0 °F 46.0 °F 38% 30.15 in 10.0 mi Calm Calm - N/A   Scattered Clouds
1:56 PM 75.0 °F 44.1 °F 33% 30.13 in 10.0 mi Variable 3.5 mph - N/A   Partly Cloudy
2:56 PM 73.0 °F 50.0 °F 44% 30.11 in 10.0 mi East 8.1 mph - N/A   Scattered Clouds
3:56 PM 73.0 °F 51.1 °F 46% 30.11 in 10.0 mi SE 11.5 mph - N/A   Scattered Clouds
4:56 PM 71.1 °F 50.0 °F 47% 30.11 in 10.0 mi SSE 12.7 mph - N/A   Scattered Clouds
5:56 PM 66.9 °F 51.1 °F 57% 30.11 in 10.0 mi SSE 9.2 mph - N/A   Mostly Cloudy
6:56 PM 64.9 °F 54.0 °F 68% 30.12 in 10.0 mi South 6.9 mph - N/A   Scattered Clouds
7:56 PM 64.0 °F 54.0 °F 70% 30.12 in 10.0 mi South 5.8 mph - N/A   Partly Cloudy
8:56 PM 63.0 °F 54.0 °F 72% 30.13 in 10.0 mi South 4.6 mph - N/A   Partly Cloudy
9:56 PM 62.1 °F 55.0 °F 78% 30.13 in 10.0 mi SSE 6.9 mph - N/A   Scattered Clouds
10:56 PM 62.1 °F 54.0 °F 75% 30.13 in 10.0 mi South 9.2 mph - N/A   Partly Cloudy
11:56 PM 62.1 °F 53.1 °F 72% 30.14 in 10.0 mi SSW 6.9 mph - N/A   Clear